Tracking 28518 objects as of 2-Mar-2024
HD Live streaming from Space Station
objects crossing your sky now

COSMOS 1455

Track COSMOS 1455 now!
10-day predictions
COSMOS 1455 is classified as:


NORAD ID: 14032
Int'l Code: 1983-037A
Perigee: 465.0 km
Apogee: 481.1 km
Inclination: 82.5 °
Period: 93.9 minutes
Semi major axis: 6844 km
RCS: 6.2678 m2 (large)
Launch date: April 23, 1983
Source: Commonwealth of Independent States (former USSR) (CIS)
Launch site: PLESETSK MISSILE AND SPACE COMPLEX (PKMTR)
Your satellite tracking list
Your tracking list is empty




NASA's NSSDC Master Catalog

Two Line Element Set (TLE):
1 14032U 83037A   24061.71852198  .00016402  00000-0  50688-3 0  9998
2 14032  82.5118 176.5891 0011797  14.7129 345.4454 15.33329840233266
Source of the keplerian elements: AFSPC